sat.trackr.live / text

‹ back to catalog

STARLINK-5504

NORAD 57262 · 2023-094AW

PAYLOAD ACTIVE UNKNOWN

§ Identity

Operator
Country
US
Launch date
2023-07-07
Launch site
AFWTR
Launch vehicle
Mass (kg)
RCS (m²)

Purposes: comms

External: N2YO · Heavens-Above · Gunter

§ Orbital elements

Epoch: 2026-09-20T17:52:13.986912Z

Period
94.27 min
Inclination
43.0036°
Eccentricity
0.0001716
Mean motion
15.27573051 rev/d
Perigee alt
481.9 km
Apogee alt
484.2 km
Semi-major
6,861.2 km
B*
1.3923e-5
RAAN
358.1055°
Arg perigee
297.6621°
Mean anomaly
62.4057°
Rev number
17,707

§ Raw data

STARLINK-55041 57262U 23094AW  26263.74460633  .00000121  00000+0  13923-4 0  99972 57262  43.0036 358.1055 0001716 297.6621  62.4057 15.27573051177077

JSON: /api/v1/satellites/57262 · /tle

For live sub-satellite position, see the globe view (requires WebGL).

§ Visibility from observer

Set your observer location to see the next 7 days of passes ≥ 10°. The values pass through the URL so the page stays shareable.

No JS? Fill the form by hand. The geolocation button needs JavaScript.